Location: Edoum�
(0.9447°N, 10.6482°E)
Time: 21:39:02
(UTC+00:00)

Cosmos 1515 Rocket - Pass Details

Date: 07 June 2020
Orbit: 605 x 631 km, 82.5° (Epoch: 10 July)

Event Time Altitude Azimuth Distance (km) Brightness Sun altitude
Rises 03:35:08 0° 351° (N) 2,846 7.2 -22.8°
Reaches altitude 10° 03:37:21 10° 348° (NNW) 1,944 6.2 -22.3°
Maximum altitude 03:41:36 65° 267° (W) 663 3.4 -21.3°
Enters shadow 03:42:10 58° 224° (SW) 707 3.5 -21.2°
